Miscellaneous Local Product
Issued by NWS Hastings, NE

Home | Current Version | Previous Version | Graphics & Text | Print | Product List | Glossary On
Versions: 1 2 3 4 5 6 7 8 9 10 11 12 13 14 15 16 17 18 19 20 21 22 23 24 25 26 27 28 29 30 31 32 33 34 35 36 37 38 39 40 41 42 43 44 45 46 47 48 49 50
000
AXUS43 KGID 251802
MISGRI

GID CWA HOURLY WEATHER ROUNDUP
NATIONAL WEATHER SERVICE HASTINGS NE
100 PM CDT TUE APR 25 2017

NOTE: "FAIR" INDICATES FEW OR NO CLOUDS BELOW 12,000 FEET WITH NO
SIGNIFICANT WEATHER AND/OR OBSTRUCTIONS TO VISIBILITY.

...SOUTH CENTRAL NEBRASKA...

CITY           SKY/WX    TMP DP  RH WIND       PRES   REMARKS
GRAND ISLAND   CLOUDY    41  40  96 N16       29.58S
HASTINGS       CLOUDY    44  38  79 N22       29.56R
KEARNEY        CLOUDY    43  37  81 N17       29.57S
ORD            CLOUDY    40  36  86 N14       29.59R WCI  32
YORK           CLOUDY    45  39  81 N24       29.53F
AURORA         CLOUDY    43  39  87 N22       29.55S
LEXINGTON      CLOUDY    42  38  85 N14       29.60R
HOLDREGE       CLOUDY    45  41  86 N15G22    29.56R
HEBRON         CLOUDY    48  40  74 N16G24    29.51R

...NEBRASKA PANHANDLE...

CITY           SKY/WX    TMP DP  RH WIND       PRES   REMARKS
CHADRON        CLOUDY    35  31  85 NE15      29.72R WCI  25
ALLIANCE       CLOUDY    38  36  92 NE15      29.63R WCI  29
SCOTTSBLUFF    CLOUDY    46  40  79 NE25G31   29.60R
SIDNEY         PTSUNNY   56  37  49 N16       29.57F

...WESTERN AND NORTH CENTRAL NEBRASKA...

CITY           SKY/WX    TMP DP  RH WIND       PRES   REMARKS
VALENTINE      CLOUDY    37  32  82 N12       29.69R WCI  29
AINSWORTH      CLOUDY    35  35 100 N15       29.66R FOG     WCI  25
ONEILL         CLOUDY    37  35  90 N16G23    29.62R WCI  28
BROKEN BOW     CLOUDY    41  50 100 N17       29.59S
IMPERIAL       CLOUDY    48  43  82 N13       29.59S
NORTH PLATTE   CLOUDY    44  39  82 N13       29.60F
MCCOOK         CLOUDY    49  44  83 N15       29.56F

...EASTERN NEBRASKA...

CITY           SKY/WX    TMP DP  RH WIND       PRES   REMARKS
NORFOLK        CLOUDY    40  36  86 N18       29.55F WCI  31
SO SIOUX CITY  CLOUDY    45  42  89 N17       29.57F
TEKAMAH        CLOUDY    48  41  76 N21       29.54F
COLUMBUS       CLOUDY    43  36  75 N20G25    29.54F
ALBION         CLOUDY    39  36  86 N12G17    29.59R WCI  32
OMAHA EPPLEY   CLOUDY    53  44  71 N17       29.48F
OFFUTT AFB     CLOUDY    56  46  70 N12       29.48F
MILLARD        CLOUDY    53  46  77 N7        29.50S
LINCOLN        CLOUDY    51  42  71 N18       29.51F
NEBRASKA CITY  CLOUDY    61  43  51 N13       29.45S
BEATRICE       CLOUDY    54  44  68 N17       29.48S
FALLS CITY     CLOUDY    65  51  60 W6        29.41S

...NORTHERN KANSAS...

CITY           SKY/WX    TMP DP  RH WIND       PRES   REMARKS
GOODLAND       CLOUDY    55  43  63 E6        29.55F
HILL CITY      CLOUDY    58  44  60 N17       29.53F
NORTON         CLOUDY    50  39  66 N15       29.54S
PHILLIPSBURG   CLOUDY    52  43  71 N15       29.53S
SMITH CENTER   CLOUDY    48  39  71 N18       29.53R
HAYS           CLOUDY    53  44  71 N17       29.51R
RUSSELL        CLOUDY    55  44  66 N16       29.49R
CONCORDIA      CLOUDY    53  44  71 N16G24    29.48R
SALINA         CLOUDY    65  54  67 NW16      29.43S
TOPEKA         CLOUDY    69  55  60 SW10      29.40S



USA.gov is the U.S. government's official web portal to all federal, state and local government web resources and services.